Location: Newsoms
(36.6240°N, 77.1250°W)
Time: 07:30:31
(UTC-04:00)

Daily predictions for brighter satellites

Satellite Brightness Start Highest point End
(mag) Time Altitude Azimuth Time Altitude Azimuth Time Altitude Azimuth
Chandra Rocket (1) 4.5 20:13:37 10° WSW 20:19:18 53° S 20:41:32 10° ESE
ERS-1 Rocket 3.7 20:38:57 10° SE 20:43:30 36° ENE 20:48:04 10° N
COSMOS 2455 3.1 20:46:57 10° S 20:52:36 45° ESE 20:58:18 10° NE
USA 186 1.3 20:50:03 10° SSE 20:52:52 86° ENE 20:55:30 10° N
H-2A R/B 2.8 20:52:00 10° SSE 20:55:56 85° ENE 20:59:55 10° N
Envisat 4.2 20:51:52 10° ESE 20:55:57 25° ENE 21:00:04 10° NNE
Cosmos 1602 Rocket 3.9 20:55:26 10° SSE 20:59:42 46° E 21:04:00 10° NNE
APEX 3.9 20:55:59 10° NNW 21:00:22 82° ENE 21:06:06 10° SSE
CZ-4 DEB 3.0 20:57:34 10° S 21:00:46 74° WSW 21:04:00 10° NNW
Tsikada Rocket 4.4 20:55:19 10° SSE 21:01:21 46° E 21:07:23 10° NNE
Cosmos 2058 Rocket 3.2 20:58:03 10° N 21:02:25 81° W 21:06:46 10° S
Cosmos 1812 Rocket 4.3 21:09:02 10° NNE 21:13:05 36° ENE 21:16:35 13° SE
Cosmos 2285 Rocket 4.4 21:08:13 10° NNW 21:14:29 67° WSW 21:20:46 10° S
YAOGAN 11 4.4 21:13:17 10° S 21:17:37 68° WSW 21:21:55 10° NNW
Cosmos 1464 Rocket 4.1 21:12:38 10° N 21:18:47 80° W 21:24:59 10° S
deb Chang Zheng 4 3.6 21:19:07 10° NNE 21:23:31 87° W 21:27:52 10° SSW
H-2A R/B 2.0 21:19:20 10° SSE 21:23:32 76° ENE 21:27:54 10° N
Cosmos 2369 Rocket 3.3 21:23:36 10° N 21:28:33 30° ENE 21:32:08 16° ESE
Cosmos 1626 Rocket 3.8 21:26:59 10° SSW 21:31:24 74° W 21:35:49 10° N
SJ-11-01 4.3 21:26:48 10° S 21:31:28 81° WSW 21:36:09 10° NNW
Cosmos 1666 3.5 21:28:55 10° NNW 21:32:43 51° W 21:36:29 10° S
Cosmos 2228 3.8 21:29:34 10° NNW 21:33:53 53° W 21:38:09 10° S
Lacrosse 4 Rocket 1.9 21:32:41 11° S 21:36:11 35° ESE 21:39:55 10° NE
CZ-2C R/B 2.4 21:34:37 10° SSW 21:36:35 26° W 21:38:36 10° NW
Cosmos 2034 Rocket 4.2 21:33:05 10° N 21:39:26 74° W 21:45:42 10° S
SeaSat 1 3.1 21:38:41 20° ESE 21:41:42 42° ENE 21:46:20 10° N
Cosmos 1238 4.2 21:48:38 16° SSW 21:51:00 75° W 21:54:00 10° N
Cosmos 1953 Rocket 4.1 21:49:27 27° SE 21:51:10 38° E 21:55:18 10° NNE
Cosmos 1190 Rocket 4.0 21:48:07 10° S 21:53:20 63° ESE 21:58:35 10° NNE
YAOGAN 6 3.3 21:54:35 32° ESE 21:55:36 39° ENE 21:59:07 10° N
Cosmos 2346 Rocket 4.5 21:50:55 15° S 21:55:59 62° E 22:02:02 10° NNE
CZ-4B R/B 3.5 21:51:46 10° NNE 21:56:51 61° ESE 22:00:41 18° S
H-2A R/B 3.7 21:55:22 14° E 21:57:00 17° ENE 22:00:07 10° NNE
Atlas Centaur 2 3.1 21:53:55 10° WSW 22:01:00 55° S 22:06:34 21° ESE
Cosmos 1515 3.9 21:58:34 16° SSW 22:01:37 71° W 22:05:29 10° N
COSMOS 2406 4.4 22:03:46 22° E 22:03:46 22° E 22:07:59 10° NE
ATLAS 3B R/B 2.9 21:57:42 10° SSW 22:05:25 84° ESE 22:13:02 10° NNE
SPOT 1/Viking Rocket 3.8 22:03:18 30° SE 22:05:37 55° ENE 22:10:39 10° N
Cosmos 1066 Rocket 4.2 22:02:16 16° S 22:06:54 79° E 22:12:44 10° NNE
ISS -0.3 22:04:32 10° WNW 22:06:58 19° NNW 22:09:25 10° NNE
Cosmos 676 Rocket 4.2 22:07:50 28° SSE 22:10:25 52° ESE 22:15:35 10° NNE
Meteor 1-22 Rocket 4.3 22:09:15 10° N 22:14:50 62° E 22:17:17 34° SSE
MetOp-A 4.1 22:13:38 28° S 22:16:33 82° WSW 22:21:56 10° NNW
CZ-4 R/B 3.9 22:14:04 10° NNE 22:19:04 69° ESE 22:21:16 33° S
USA 234 3.7 22:19:11 24° ESE 22:23:04 53° NE 22:29:24 10° NW
Milstar 3 Cent rocket 4.2 22:20:25 10° WSW 22:23:06 13° SW 22:24:27 12° SSW
Cosmos 1953 3.9 22:21:15 10° NNE 22:23:57 21° ENE 22:23:57 21° ENE
Cosmos 1758 Rocket 3.4 22:23:40 46° S 22:24:55 78° E 22:29:18 10° N
SPOT 5 3.5 22:23:01 23° SSW 22:25:17 43° W 22:29:25 10° NNW
Cosmos 1943 Rocket 3.1 22:20:50 10° N 22:25:54 34° ENE 22:27:31 29° E
BREEZE M DEB (TANK) 2.8 22:24:34 10° NW 22:25:59 32° NNW 22:25:59 32° NNW
Cosmos 1943 3.9 22:21:18 10° SW 22:26:49 54° WNW 22:32:25 10° NNE
Terra 2.8 22:31:28 31° E 22:32:02 32° ENE 22:36:14 10° N
Envisat 4.3 22:31:25 16° SSW 22:34:46 33° W 22:39:22 10° NNW
Cosmos 1346 Rocket 3.4 22:34:25 34° SW 22:35:48 53° W 22:39:39 10° N
Cosmos 407 Rocket 3.9 22:34:32 13° SSW 22:39:12 61° WNW 22:44:24 10° N
DELTA 2 DEB (DPAF) 4.1 22:38:41 60° ESE 22:39:13 67° ENE 22:43:41 10° N
Cosmos 1842 3.3 22:44:54 68° NE 22:44:54 68° NE 22:48:27 10° N
SL-27 R/B 3.8 22:46:07 30° NNE 22:46:07 30° NNE 22:47:58 10° NNE
USA 238 DEB 3.7 22:43:03 22° SSW 22:47:50 70° ESE 22:54:52 10° NE
USA 238 3.7 22:43:18 23° SSW 22:47:57 69° ESE 22:54:58 10° NE
Meteor 1-21 4.4 22:47:54 33° SSW 22:50:37 75° W 22:56:27 10° N
ATLAS 5 CENTAUR R/B4.323:14:29ESE23:14:29ESE22:49:43SW
ARGOS 3.4 22:55:38 43° SSW 22:57:12 61° WSW 23:02:35 10° NNW
Cosmos 1954 Rocket 4.2 22:57:35 37° SW 22:59:40 71° WNW 23:04:59 10° NNE
Cosmos 1092 Rocket 4.3 23:02:29 45° ESE 23:03:02 46° E 23:08:59 10° NNE
IGS 5A 3.9 23:05:31 55° NNE 23:05:31 55° NNE 23:09:02 10° N
Cosmos 2208 Rocket 4.4 23:02:57 10° N 23:07:57 48° ENE 23:08:05 47° ENE
Cosmos 1766 4.3 23:07:12 10° NNW 23:10:50 42° W 23:10:50 42° W
Cosmos 1758 3.8 23:07:34 10° N 23:10:56 58° N 23:10:56 58° N
Nadezhda 4 Rocket 3.9 23:11:18 60° SSE 23:12:29 77° E 23:18:49 10° N
Cosmos 2369 Rocket 3.3 23:07:31 10° NW 23:12:32 33° WSW 23:13:56 29° SW
Lacrosse 4 Rocket 4.1 23:12:17 10° W 23:15:01 17° NW 23:17:47 10° N
Cosmos 2084 4.0 23:12:10 10° NNW 23:15:41 54° NNE 23:15:41 54° NNE
SeaSat 1 4.1 23:18:29 21° WSW 23:19:18 22° WSW 23:23:08 10° NW
Cosmos 1741 Rocket 3.9 23:21:13 86° ESE 23:21:13 86° ESE 23:26:34 10° NNE
NOSS 3-2 (C) 4.5 23:24:05 31° E 23:24:05 31° E 23:28:10 10° NE
Cosmos 2221 4.3 23:32:07 10° NNE 23:34:25 23° NE 23:34:25 23° NE
H-2A R/B 2.4 23:36:00 51° W 23:36:00 51° W 23:40:51 10° NNW
Cosmos 1850 Rocket 4.2 23:37:40 62° W 23:37:59 63° WNW 23:43:10 10° N
Cosmos 1470 4.5 23:34:28 10° N 23:36:33 29° NNE 23:36:33 29° NNE
Cosmos-2242 4.3 23:34:35 10° NNW 23:38:15 35° W 23:38:15 35° W
Cosmos 1570 Rocket 4.1 23:37:04 10° NNW 23:42:07 71° WNW 23:42:07 71° WNW
CZ-4C R/B 2.9 23:45:27 42° ENE 23:45:27 42° ENE 23:49:29 10° NE
COSMOS 2406 4.1 23:45:47 34° WSW 23:47:40 46° WNW 23:53:10 10° N
Cosmos 1607 4.3 23:45:43 37° WSW 23:48:03 60° WNW 23:54:13 10° NNE
Atlas Centaur 2 3.5 23:42:58 10° W 23:49:12 43° SW 23:49:12 43° SW
Cosmos 2026 Rocket 4.1 23:52:27 61° ENE 23:52:27 61° ENE 23:58:03 10° NNE
Cosmos 2195 Rocket 4.4 23:53:09 73° E 23:53:09 73° E 23:59:16 10° N
